Location: D�nning
(49.2479°N, 12.8491°E)
Time: 08:21:17
(UTC+00:00)

MetOp-B - Pass Details

Date: 18 September 2020
Orbit: 819 x 821 km, 98.7° (Epoch: 25 October)

Event Time Altitude Azimuth Distance (km) Brightness Sun altitude
Exits shadow 19:41:03 58° 123° (ESE) 957 4.1 -23.4°
Maximum altitude 19:41:56 69° 71° (ENE) 879 4.1 -23.5°
Drops below altitude 10° 19:47:16 10° 349° (N) 2,428 7.1 -24.2°
Sets 19:49:38 0° 348° (NNW) 3,365 8.0 -24.6°
